SL-14 DEB, 45290

Orbit data source: Space-Track

SL-14 DEB, 45290 is space debris in LEO originally from a launch on Thu, 15 Aug 1991 UTC launched from the Plesetsk Missile And Space Complex (PKMTR). Debris objects in space refer to the collection of defunct objects orbiting the Earth. Examples of debris include non-operational satellites, rocket bodies, and fragments generated from explosions, collisions, or faulty payload assembly.

Loading next visibility...
Identifier
45290, 1991-056AC
Orbit
LEO
Country
Flag of CISCIS
Related business
Manufacturer
Unknown
Mission
Spacecraft
Bus & Motor
Unknown
Mass
Unknown
Launch date (UTC)
1991-08-15 (34 years ago)
Launch vehicle
Unknown
Launch site
Plesetsk Missile And Space Complex (PKMTR)
Object type
Payload
Rocket body
Debris
Shape & HBR
Unknown shape, 0.2 m
Radar Cross Section
Small (<0.1 m²)

Expand to show TLE details & history
Last TLE update: 18 hours ago

TLE from 18 hours ago
0 SL-14 DEB
1 45290U 91056AC  26036.41803233  .00003957  00000-0  67232-2 0  9998
2 45290  82.6316 197.9665 0126526 247.4990 111.2712 13.41835186290745
Epoch: 2026-02-05T10:01Z
TLE epoch observation values (Epoch: 2026-02-05T10:01:57.993Z)
Latitude
0.00001°
Longitude
-88.09569°
Altitude
1,140.672 km
Speed
7.265 km/s
True Right ascension
13h 11m 51s
True Declination
0° 00' 00"
Sunlit
Object was in daylight at epoch
Visualization orbit readout
Latitude
Unknown
Longitude
Unknown
Altitude
Unknown
Speed
Unknown
Apparent Right ascension
Unknown
Apparent Declination
Unknown
Sunlit
N/A
Visualization observer readout
Local Sidereal Time
05:45:27
Azimuth
Unknown
Elevation
Unknown
Doppler factor
Unknown
Orbital elements
Apogee altitude
1,194.271 km
Perigee altitude
1,005.043 km
Semi-major axis
7,477.794 km
Eccentricity
0.01265
Inclination
82.6316°
RAAN
197.9665°
Arg. of periapsis
247.499°
True anomaly
112.61447°
Mean anomaly
111.2712°
Eccentric anomaly
111.94362°
Mean motion
3.35647 °/min
Orbital period
107.26 mins
BSTAR
0.0067232
Loading maneuver chart data...
Computing Atmospheric mass density...
Loading historical data...
Loading historical data...
Loading historical data...
Loading historical data...
Loading historical data...
Loading historical data...
Loading historical data...

Documentation

Showing up to 5 results
|